| time (UTC) | temp C | wind direction | speed KPH | gust KPH | rain 1hr cm | rain 24hr cm | rain mn cm | humidity % | barometer mb |
| 20260505153016 | 19 | 248 | 4.8 | 14.5 | 0.00 | 0.00 | 0.00 | 68 | 1010.1 |
| 20260505152016 | 19 | 248 | 6.4 | 17.7 | 0.00 | 0.00 | 0.00 | 68 | 1010.1 |
| 20260505151016 | 18 | 248 | 6.4 | 14.5 | 0.00 | 0.00 | 0.00 | 68 | 1010.0 |
| 20260505125016 | 17 | 0.0 | 0.0 | 0.00 | 0.00 | 0.00 | 75 | 1010.3 | |
| 20260505124016 | 17 | 0.0 | 1.6 | 0.00 | 0.00 | 0.00 | 74 | 1010.3 | |
| 20260505123016 | 17 | 0.0 | 3.2 | 0.00 | 0.00 | 0.00 | 74 | 1010.4 | |
| 20260505122016 | 17 | 45 | 1.6 | 4.8 | 0.00 | 0.00 | 0.00 | 73 | 1010.7 |
| 20260505121016 | 17 | 45 | 3.2 | 9.7 | 0.00 | 0.00 | 0.00 | 73 | 1010.8 |
| 20260505120016 | 17 | 68 | 1.6 | 4.8 | 0.00 | 0.05 | 0.00 | 73 | 1010.6 |
| 20260505115016 | 17 | 45 | 3.2 | 6.4 | 0.00 | 0.10 | 0.00 | 72 | 1010.5 |
| 20260505114016 | 17 | 45 | 3.2 | 8.0 | 0.00 | 0.13 | 0.00 | 71 | 1010.2 |
| 20260505113016 | 17 | 68 | 3.2 | 8.0 | 0.00 | 0.15 | 0.00 | 70 | 1010.2 |
| 20260505112016 | 17 | 45 | 1.6 | 6.4 | 0.00 | 0.18 | 0.00 | 68 | 1010.2 |
| 20260505111016 | 17 | 0.0 | 3.2 | 0.00 | 0.18 | 0.00 | 67 | 1010.1 | |
| 20260505102016 | 17 | 0.0 | 3.2 | 0.00 | 0.18 | 0.00 | 63 | 1010.5 | |
| 20260505101016 | 17 | 338 | 3.2 | 8.0 | 0.00 | 0.18 | 0.00 | 63 | 1010.5 |
| 20260505100016 | 17 | 248 | 1.6 | 6.4 | 0.00 | 0.18 | 0.00 | 63 | 1010.4 |
| 20260505095056 | 17 | 248 | 3.2 | 8.0 | 0.00 | 0.18 | 0.00 | 63 | 1009.7 |
| 20260505094016 | 18 | 225 | 3.2 | 8.0 | 0.00 | 0.18 | 0.00 | 62 | 1009.4 |
| 20260505093036 | 18 | 248 | 3.2 | 9.7 | 0.00 | 0.18 | 0.00 | 61 | 1009.0 |
| 20260505092016 | 18 | 248 | 6.4 | 14.5 | 0.00 | 0.18 | 0.00 | 61 | 1009.0 |
| 20260505091036 | 18 | 248 | 6.4 | 14.5 | 0.00 | 0.18 | 0.00 | 61 | 1009.0 |
| 20260505090016 | 18 | 225 | 8.0 | 19.3 | 0.00 | 0.18 | 0.00 | 60 | 1008.6 |
| 20260505085016 | 18 | 248 | 8.0 | 19.3 | 0.00 | 0.18 | 0.00 | 60 | 1008.6 |
| 20260505084016 | 18 | 248 | 8.0 | 22.5 | 0.00 | 0.18 | 0.00 | 60 | 1008.6 |
| 20260505083016 | 18 | 248 | 8.0 | 20.9 | 0.00 | 0.18 | 0.00 | 59 | 1008.6 |
| 20260505082016 | 18 | 248 | 9.7 | 17.7 | 0.00 | 0.18 | 0.00 | 59 | 1008.5 |
| 20260505081016 | 18 | 248 | 9.7 | 20.9 | 0.00 | 0.18 | 0.00 | 59 | 1008.5 |
| 20260505080016 | 18 | 248 | 8.0 | 20.9 | 0.00 | 0.18 | 0.00 | 59 | 1008.4 |
| 20260505075016 | 18 | 248 | 8.0 | 19.3 | 0.00 | 0.18 | 0.00 | 59 | 1008.6 |
| 20260505074036 | 18 | 248 | 8.0 | 17.7 | 0.00 | 0.18 | 0.00 | 59 | 1008.5 |
| 20260505073016 | 18 | 248 | 8.0 | 16.1 | 0.00 | 0.18 | 0.00 | 59 | 1008.5 |
| 20260505072016 | 18 | 248 | 8.0 | 16.1 | 0.00 | 0.18 | 0.00 | 59 | 1008.3 |
| 20260505071016 | 19 | 248 | 8.0 | 17.7 | 0.00 | 0.18 | 0.00 | 58 | 1008.4 |
| 20260505070016 | 19 | 248 | 9.7 | 19.3 | 0.00 | 0.18 | 0.00 | 58 | 1008.3 |
| 20260505065016 | 19 | 248 | 8.0 | 20.9 | 0.00 | 0.18 | 0.00 | 58 | 1007.9 |
| 20260505064016 | 19 | 248 | 11.3 | 20.9 | 0.00 | 0.18 | 0.00 | 58 | 1008.0 |
| 20260505063016 | 19 | 248 | 9.7 | 24.1 | 0.00 | 0.18 | 0.00 | 58 | 1008.1 |
| 20260505062016 | 19 | 248 | 8.0 | 17.7 | 0.00 | 0.18 | 0.00 | 59 | 1008.1 |
| 20260505061036 | 18 | 248 | 8.0 | 16.1 | 0.00 | 0.18 | 0.00 | 59 | 1008.0 |
| 20260505060016 | 18 | 248 | 6.4 | 20.9 | 0.00 | 0.18 | 0.00 | 59 | 1007.8 |
| 20260505055016 | 18 | 248 | 8.0 | 22.5 | 0.00 | 0.18 | 0.00 | 60 | 1007.8 |
| 20260505054016 | 18 | 248 | 8.0 | 20.9 | 0.00 | 0.18 | 0.00 | 60 | 1007.8 |
| 20260505053016 | 18 | 248 | 6.4 | 16.1 | 0.00 | 0.18 | 0.00 | 60 | 1007.9 |
| 20260505052016 | 18 | 248 | 6.4 | 11.3 | 0.00 | 0.18 | 0.00 | 60 | 1007.9 |
| 20260505051016 | 18 | 248 | 4.8 | 12.9 | 0.00 | 0.18 | 0.00 | 60 | 1007.9 |
| 20260505041016 | 19 | 248 | 3.2 | 9.7 | 0.00 | 0.18 | 0.00 | 58 | 1008.2 |
| 20260505040016 | 19 | 225 | 4.8 | 11.3 | 0.00 | 0.18 | 0.00 | 57 | 1008.4 |
| 20260505035016 | 19 | 225 | 3.2 | 9.7 | 0.00 | 0.18 | 0.18 | 58 | 1008.4 |
| 20260505034016 | 19 | 225 | 3.2 | 9.7 | 0.00 | 0.18 | 0.18 | 58 | 1008.3 |
| 20260505033016 | 19 | 225 | 3.2 | 8.0 | 0.00 | 0.18 | 0.18 | 57 | 1008.3 |
| 20260505032016 | 20 | 225 | 1.6 | 4.8 | 0.00 | 0.18 | 0.18 | 57 | 1008.1 |
| 20260505031036 | 20 | 225 | 3.2 | 6.4 | 0.00 | 0.18 | 0.18 | 56 | 1008.0 |
| 20260505030016 | 20 | 225 | 1.6 | 8.0 | 0.00 | 0.18 | 0.18 | 55 | 1007.9 |
| 20260505025036 | 20 | 225 | 3.2 | 9.7 | 0.00 | 0.18 | 0.18 | 54 | 1007.7 |
| 20260505024016 | 20 | 248 | 4.8 | 8.0 | 0.00 | 0.18 | 0.18 | 53 | 1007.6 |
| 20260505023037 | 21 | 225 | 3.2 | 14.5 | 0.00 | 0.18 | 0.18 | 53 | 1007.2 |
| 20260505022016 | 21 | 225 | 3.2 | 8.0 | 0.00 | 0.18 | 0.18 | 52 | 1007.1 |
| 20260505021016 | 21 | 203 | 3.2 | 8.0 | 0.00 | 0.18 | 0.18 | 52 | 1006.9 |
| 20260505020016 | 21 | 225 | 3.2 | 8.0 | 0.00 | 0.18 | 0.18 | 51 | 1006.8 |
| 20260505015016 | 21 | 225 | 3.2 | 11.3 | 0.00 | 0.18 | 0.18 | 50 | 1006.7 |
| 20260505014016 | 22 | 225 | 4.8 | 12.9 | 0.00 | 0.18 | 0.18 | 49 | 1006.4 |
| 20260505013016 | 22 | 248 | 4.8 | 14.5 | 0.00 | 0.18 | 0.18 | 49 | 1006.3 |
| 20260505012016 | 22 | 248 | 6.4 | 14.5 | 0.00 | 0.18 | 0.18 | 48 | 1006.0 |
| 20260505011016 | 22 | 248 | 6.4 | 16.1 | 0.00 | 0.18 | 0.18 | 49 | 1005.9 |
| 20260505010016 | 22 | 248 | 8.0 | 24.1 | 0.00 | 0.18 | 0.18 | 48 | 1006.2 |
| 20260505005016 | 22 | 248 | 6.4 | 16.1 | 0.00 | 0.18 | 0.18 | 50 | 1006.0 |
| 20260505004016 | 22 | 248 | 6.4 | 17.7 | 0.00 | 0.18 | 0.18 | 50 | 1006.1 |
| 20260505003036 | 23 | 248 | 6.4 | 16.1 | 0.00 | 0.18 | 0.18 | 50 | 1006.0 |
| 20260505002016 | 23 | 248 | 6.4 | 16.1 | 0.00 | 0.18 | 0.18 | 50 | 1005.9 |
| 20260505001016 | 23 | 248 | 6.4 | 12.9 | 0.00 | 0.18 | 0.18 | 49 | 1005.9 |
| 20260505000016 | 23 | 248 | 6.4 | 17.7 | 0.00 | 0.18 | 0.18 | 48 | 1006.2 |
| 20260504235017 | 23 | 248 | 8.0 | 19.3 | 0.00 | 0.18 | 0.18 | 47 | 1006.2 |
| 20260504234016 | 24 | 248 | 8.0 | 20.9 | 0.00 | 0.18 | 0.18 | 47 | 1006.3 |
| 20260504233016 | 24 | 248 | 6.4 | 17.7 | 0.00 | 0.18 | 0.18 | 46 | 1006.7 |
| 20260504232016 | 24 | 248 | 8.0 | 22.5 | 0.00 | 0.18 | 0.18 | 45 | 1006.9 |
| 20260504231016 | 25 | 248 | 6.4 | 19.3 | 0.00 | 0.18 | 0.18 | 46 | 1007.2 |
| 20260504230036 | 25 | 225 | 8.0 | 19.3 | 0.00 | 0.18 | 0.18 | 46 | 1007.4 |
| 20260504225016 | 25 | 225 | 9.7 | 19.3 | 0.00 | 0.18 | 0.18 | 46 | 1007.4 |
| 20260504224016 | 25 | 248 | 9.7 | 20.9 | 0.00 | 0.18 | 0.18 | 45 | 1007.6 |
| 20260504223016 | 25 | 248 | 9.7 | 20.9 | 0.00 | 0.18 | 0.18 | 45 | 1007.7 |
| 20260504222036 | 25 | 248 | 11.3 | 22.5 | 0.00 | 0.18 | 0.18 | 45 | 1007.9 |
| 20260504221036 | 25 | 248 | 12.9 | 24.1 | 0.00 | 0.18 | 0.18 | 45 | 1008.1 |
| 20260504220016 | 25 | 248 | 11.3 | 19.3 | 0.00 | 0.18 | 0.18 | 44 | 1008.0 |
| 20260504215036 | 25 | 248 | 12.9 | 24.1 | 0.00 | 0.18 | 0.18 | 44 | 1008.1 |
| 20260504214016 | 26 | 248 | 12.9 | 32.2 | 0.00 | 0.18 | 0.18 | 45 | 1008.0 |
| 20260504213036 | 26 | 225 | 11.3 | 30.6 | 0.00 | 0.18 | 0.18 | 45 | 1008.0 |
| 20260504212016 | 26 | 248 | 11.3 | 22.5 | 0.00 | 0.18 | 0.18 | 45 | 1008.2 |
| 20260504211016 | 27 | 248 | 11.3 | 20.9 | 0.00 | 0.18 | 0.18 | 45 | 1008.2 |
| 20260504210036 | 26 | 248 | 11.3 | 29.0 | 0.00 | 0.18 | 0.18 | 45 | 1008.3 |
| 20260504205016 | 26 | 248 | 9.7 | 24.1 | 0.00 | 0.18 | 0.18 | 46 | 1008.2 |
| 20260504204016 | 27 | 248 | 11.3 | 25.7 | 0.00 | 0.18 | 0.18 | 45 | 1008.3 |
| 20260504203016 | 27 | 248 | 11.3 | 24.1 | 0.00 | 0.18 | 0.18 | 47 | 1008.3 |
| 20260504202016 | 26 | 248 | 12.9 | 24.1 | 0.00 | 0.18 | 0.18 | 47 | 1008.4 |
| 20260504201016 | 26 | 248 | 11.3 | 24.1 | 0.00 | 0.18 | 0.18 | 45 | 1008.5 |
| 20260504200056 | 26 | 248 | 12.9 | 29.0 | 0.00 | 0.18 | 0.18 | 45 | 1008.6 |
| 20260504195016 | 26 | 248 | 11.3 | 27.4 | 0.00 | 0.18 | 0.18 | 44 | 1008.8 |
| 20260504194016 | 27 | 248 | 12.9 | 29.0 | 0.00 | 0.18 | 0.18 | 43 | 1009.0 |
| 20260504193016 | 27 | 248 | 12.9 | 29.0 | 0.00 | 0.18 | 0.18 | 45 | 1009.1 |
| 20260504192016 | 27 | 248 | 9.7 | 24.1 | 0.00 | 0.18 | 0.18 | 46 | 1009.2 |
| 20260504191016 | 26 | 248 | 11.3 | 25.7 | 0.00 | 0.18 | 0.18 | 46 | 1009.3 |
| 20260504190016 | 26 | 248 | 11.3 | 24.1 | 0.00 | 0.18 | 0.18 | 46 | 1009.3 |
| 20260504185016 | 26 | 248 | 12.9 | 29.0 | 0.00 | 0.18 | 0.18 | 48 | 1009.5 |
| 20260504184016 | 26 | 248 | 9.7 | 29.0 | 0.00 | 0.18 | 0.18 | 49 | 1009.6 |
| 20260504183036 | 26 | 248 | 11.3 | 19.3 | 0.00 | 0.18 | 0.18 | 48 | 1009.7 |
| 20260504182016 | 26 | 248 | 12.9 | 24.1 | 0.00 | 0.18 | 0.18 | 48 | 1009.6 |
| 20260504181036 | 26 | 248 | 11.3 | 24.1 | 0.00 | 0.18 | 0.18 | 48 | 1009.9 |
| 20260504180016 | 26 | 248 | 9.7 | 25.7 | 0.00 | 0.18 | 0.18 | 48 | 1009.8 |
| 20260504175036 | 26 | 248 | 9.7 | 19.3 | 0.00 | 0.18 | 0.18 | 52 | 1009.7 |
| 20260504174056 | 25 | 248 | 11.3 | 24.1 | 0.00 | 0.18 | 0.18 | 48 | 1009.8 |
| 20260504173016 | 25 | 248 | 9.7 | 24.1 | 0.00 | 0.18 | 0.18 | 51 | 1009.7 |
| 20260504172016 | 25 | 248 | 11.3 | 22.5 | 0.00 | 0.18 | 0.18 | 52 | 1009.9 |
| 20260504171016 | 25 | 248 | 9.7 | 24.1 | 0.00 | 0.18 | 0.18 | 53 | 1009.8 |